[[{"header":{"parameterUnit":"m.s-1","parameterCategory":1,"la1":30.2991,"la2":30.254,"lo1":-89.0895,"lo2":-89.0444,"dy":0.0017,"dx":0.0017,"nx":28,"ny":28,"refTime":"2024-03-23T21:00:00:Z","depth":0,"parameterNumber":2,"parameterNumberName":"U-component_of_WINDS"},"data":[0,0,0,0,0,0,0,0,0,0,0,0,0,0,0,0,0,0,0,0,0,0,0,0,0,0,0,0,0,0,0,0,0,0,0,0,0,0,0,0,0,0,0,0,0,0,0,0,0,0,0,0,0,0,0,0,0,0,-6.8383,-6.8384,0,-6.8462,-6.8463,-6.8463,-6.8415,-6.8413,-6.841,-6.8408,-6.8484,-6.8488,-6.8492,0,0,0,0,0,0,0,0,0,0,0,0,0,-6.8188,-6.8191,-6.8383,-6.8384,-6.8385,-6.8462,-6.8463,-6.8464,-6.8415,-6.8412,-6.841,-6.8407,-6.8483,-6.8488,-6.8493,0,0,0,0,0,0,0,0,0,0,0,0,0,-6.827,-6.8193,-6.8383,-6.837,-6.837,-6.8461,-6.8463,-6.8464,-6.8416,-6.8412,-6.8409,-6.8406,-6.8481,-6.8487,-6.8493,-6.86,0,0,-6.8512,-6.8515,0,0,0,0,0,0,0,0,-6.8265,-6.8277,-6.8371,-6.8371,-6.8371,-6.8425,-6.8421,-6.851,-6.8417,-6.8398,-6.8408,-6.8404,-6.8467,-6.8474,-6.8496,-6.8604,-6.8607,-6.8513,-6.8517,-6.8519,-6.8521,0,0,0,0,0,0,0,-6.826,-6.8273,-6.8414,-6.8373,-6.8373,-6.8359,-6.8367,-6.8438,-6.8451,-6.84,-6.8396,-6.8407,-6.8466,-6.849,-6.8498,-6.8608,-6.8513,-6.8518,-6.8522,-6.8525,-6.8806,-6.881,0,0,0,0,0,0,-6.8255,-6.8269,-6.8412,-6.8416,-6.8309,-6.8366,-6.8375,-6.8411,-6.845,-6.8453,-6.8409,-6.8404,-6.8481,-6.849,-6.85,-6.8627,-6.8519,-6.8525,-6.8529,-6.8803,-6.8807,-6.8811,0,0,0,0,0,0,-6.8251,-6.8269,-6.8408,-6.8342,-6.8359,-6.8373,-6.8414,-6.8415,-6.8439,-6.8457,-6.8459,-6.8432,-6.8479,-6.8491,-6.8576,-6.8629,-6.8528,-6.8534,-6.8798,-6.8804,-6.8809,-6.8881,0,0,0,0,0,0,-6.8246,-6.8268,-6.8309,-6.8343,-6.8363,-6.8484,-6.8418,-6.8419,-6.845,-6.8444,-6.8479,-6.8481,-6.8477,-6.8567,-6.8582,-6.8635,-6.8538,-6.8793,-6.8801,-6.8807,-6.8874,-6.8889,-6.8901,0,0,0,0,0,-6.8239,-6.8326,-6.8312,-6.8329,-6.8415,-6.8487,-6.8498,-6.8493,-6.8455,-6.8496,-6.8508,-6.848,-6.8621,-6.8576,-6.8593,-6.8649,-6.879,-6.8799,-6.8807,-6.8868,-6.8886,-6.8901,0,0,0,0,0,0,-6.8296,-6.833,-6.8314,-6.8415,-6.8449,-6.8479,-6.8531,-6.8512,-6.8556,-6.8548,-6.8539,-6.8547,-6.8635,-6.8651,-6.86,-6.8754,-6.8699,-6.8711,-6.874,-6.8757,-6.877,-6.8764,-6.8544,0,0,0,0,0,-6.832,-6.8378,-6.8404,-6.849,-6.8508,-6.8517,-6.8548,-6.8541,-6.8575,-6.8589,-6.8607,-6.864,-6.8691,-6.8725,-6.8774,-6.8877,-6.8883,-6.8924,-6.8937,-6.8948,-6.8958,-6.9012,-6.903,-6.8839,-6.8839,-6.8839,0,0,-6.837,-6.8396,-6.8433,-6.8502,-6.8527,-6.8585,-6.8529,-6.8593,-6.8635,-6.8598,-6.8679,-6.8694,-6.873,-6.8824,-6.8866,-6.8839,-6.9013,-6.8959,-6.8967,-6.8971,-6.9023,-6.9041,-6.9057,-6.8845,-6.8843,-6.8843,0,0,-6.8492,-6.8518,-6.8592,-6.8619,-6.8659,-6.8664,-6.8682,-6.8716,-6.8724,-6.8806,-6.8779,-6.8829,-6.8918,-6.8945,-6.897,-6.9102,-6.9078,-6.9118,-6.9188,-6.924,-6.9255,-6.9269,-6.9314,-6.9331,-6.9129,-6.9129,-6.9129,0,-6.8548,-6.8636,-6.8632,-6.8698,-6.8728,-6.87,-6.8773,-6.8799,-6.8853,-6.8873,-6.8843,-6.8955,-6.8977,-6.9076,-6.9109,-6.9131,-6.9149,-6.9113,-6.9254,-6.9267,-6.928,-6.9322,-6.934,-6.9133,-6.9133,-6.9132,-6.9132,0,-6.8703,-6.8765,-6.8819,-6.8873,-6.891,-6.8979,-6.8984,-6.9022,-6.9012,-6.9021,-6.9103,-6.913,-6.9182,-6.9206,-6.9197,-6.9304,-6.9286,-6.9255,-6.92,-6.9302,-6.9342,-6.9359,-6.914,-6.9138,-6.9137,-6.9136,0,0,-6.886,-6.8912,-6.8931,-6.8955,-6.8997,-6.9044,-6.9112,-6.9165,-6.9197,-6.9235,-6.929,-6.9367,-6.9339,-6.9368,-6.9362,-6.9409,-6.9509,-6.9372,-6.9373,-6.9395,-6.9627,-6.9648,-6.9667,-6.9495,-6.9498,-6.95,-6.9623,0,-6.8982,-6.9102,-6.9101,-6.9211,-6.9267,-6.9241,-6.93,-6.9331,-6.9341,-6.9389,-6.9399,-6.9453,-6.9413,-6.943,-6.9476,-6.9488,-6.9555,-6.9479,-6.9544,-6.9546,-6.9533,-6.9688,-6.9711,-6.9825,-6.9639,-6.9641,-6.9643,0,-6.914,-6.9185,-6.9301,-6.9335,-6.9359,-6.9412,-6.946,-6.9507,-6.9542,-6.9545,-6.9578,-6.9565,-6.9632,-6.9577,-6.9669,-6.9617,-6.9644,-6.9654,-6.9658,-6.9662,-6.9599,-6.9694,-6.9861,-6.9878,-6.9668,-6.9666,-6.9665,0,-6.9241,-6.933,-6.9411,-6.9432,-6.9474,-6.9512,-6.9531,-6.9563,-6.9595,-6.9637,-6.9657,-6.9706,-6.9733,-6.977,-6.977,-6.973,-6.9862,-6.9807,-6.9865,-6.9865,-6.9892,-6.989,-7.0064,-6.9914,-6.9913,-6.9913,-6.9913,0,-6.9376,-6.9448,-6.9456,-6.9506,-6.9585,-6.9582,-6.966,-6.9676,-6.9704,-6.9755,-6.9736,-6.9784,-6.9782,-6.983,-6.983,-6.9905,-6.9918,-6.9921,-6.992,-6.9922,-6.9921,-6.9937,-6.9928,-6.9918,-6.9917,-6.9916,-6.9915,0,-6.95,-6.951,-6.9596,-6.9629,-6.9639,-6.9696,-6.9724,-6.977,-6.9779,-6.9843,-6.9858,-6.9872,-6.9927,-6.9932,-6.9996,-6.9996,-7.0086,-7.0077,-7.0075,-7.0072,-7.0129,-7.0123,-7.0318,-7.0342,-7.0178,-7.018,-7.0181,0,-6.9585,-6.964,-6.9679,-6.9713,-6.9734,-6.9789,-6.9821,-6.9821,-6.9856,-6.99,-6.994,-6.9995,-7.0038,-7.0128,-7.0142,-7.0191,-7.0182,-7.0247,-7.0189,-7.0189,-7.018,-7.0176,-7.0181,-7.0257,-7.0259,-7.026,-7.0262,0,-6.9734,-6.9736,-6.9784,-6.9835,-6.9875,-6.9915,-6.9952,-6.998,-6.9983,-7.0023,-7.0081,-7.0115,-7.0181,-7.0234,-7.0282,-7.03,-7.0281,-7.028,-7.0296,-7.0297,-7.0292,-7.0294,-7.0103,-7.0275,-7.0274,-7.0273,-7.0272,-7.0272,-6.9839,-6.9886,-6.9922,-6.9977,-7.0005,-7.004,-7.0085,-7.01,-7.0148,-7.0203,-7.0199,-7.0263,-7.0295,-7.0358,-7.038,-7.0428,-7.0406,-7.0429,-7.0434,-7.0439,-7.0444,-7.0287,-7.0437,-7.0437,-7.0436,-7.0436,-7.0436,0,-6.9985,-7.0007,-7.0058,-7.011,-7.0153,-7.0134,-7.0174,-7.0211,-7.0267,-7.03,-7.0343,-7.0409,-7.0461,-7.048,-7.053,-7.0565,-7.0557,-7.0578,-7.0574,-7.0578,-7.0463,-7.0443,-7.0583,-7.0583,-7.0583,-7.0583,-7.0583,-7.0583,-7.0066,-7.0144,-7.015,-7.0242,-7.0263,-7.0325,-7.035,-7.0381,-7.0408,-7.0482,-7.0526,-7.0538,-7.0565,-7.0617,-7.0664,-7.0668,-7.0686,-7.071,-7.071,-7.0601,-7.0586,-7.0572,-7.0554,-7.0714,-7.0715,-7.0821,-7.0822,-7.0823]},{"header":{"parameterUnit":"m.s-1","parameterCategory":1,"la1":30.2991,"la2":30.254,"lo1":-89.0895,"lo2":-89.0444,"dy":0.0017,"dx":0.0017,"nx":28,"ny":28,"refTime":"2024-03-23T21:00:00:Z","depth":0,"parameterNumber":3,"parameterNumberName":"V-component_of_WINDS"},"data":[0,0,0,0,0,0,0,0,0,0,0,0,0,0,0,0,0,0,0,0,0,0,0,0,0,0,0,0,0,0,0,0,0,0,0,0,0,0,0,0,0,0,0,0,0,0,0,0,0,0,0,0,0,0,0,0,0,0,5.3624,5.3624,0,5.3649,5.3649,5.3649,5.3584,5.3582,5.358,5.3578,5.36,5.3602,5.3605,0,0,0,0,0,0,0,0,0,0,0,0,0,5.3517,5.352,5.3624,5.3624,5.3625,5.3649,5.3649,5.365,5.3584,5.3582,5.3579,5.3577,5.3599,5.3602,5.3605,0,0,0,0,0,0,0,0,0,0,0,0,0,5.3555,5.352,5.3624,5.3595,5.3593,5.3649,5.3649,5.365,5.3585,5.3582,5.3579,5.3576,5.3598,5.3602,5.3605,5.3689,0,0,5.3617,5.3618,0,0,0,0,0,0,0,0,5.3553,5.3559,5.3599,5.3597,5.3595,5.361,5.3619,5.3663,5.3586,5.3588,5.3578,5.3574,5.3605,5.3608,5.362,5.369,5.3691,5.3617,5.3619,5.3621,5.3622,0,0,0,0,0,0,0,5.355,5.3558,5.3634,5.36,5.3597,5.358,5.3582,5.3627,5.3613,5.3587,5.3583,5.3587,5.3604,5.3616,5.362,5.3691,5.3617,5.362,5.3622,5.3624,5.3834,5.3837,0,0,0,0,0,0,5.3552,5.3556,5.3633,5.3634,5.3566,5.3584,5.3587,5.3608,5.3613,5.361,5.3589,5.3584,5.3611,5.3615,5.362,5.372,5.3621,5.3624,5.3626,5.3831,5.3835,5.3838,0,0,0,0,0,0,5.355,5.356,5.3632,5.3594,5.3602,5.359,5.3614,5.361,5.3623,5.3614,5.3611,5.3605,5.3609,5.3615,5.3673,5.372,5.3626,5.3629,5.3827,5.3832,5.3836,5.392,0,0,0,0,0,0,5.3547,5.3559,5.3592,5.3595,5.3604,5.3686,5.3617,5.3613,5.363,5.3623,5.3628,5.3626,5.3607,5.3668,5.3677,5.3723,5.3632,5.3822,5.3829,5.3835,5.3913,5.3928,5.394,0,0,0,0,0,5.3544,5.3613,5.3594,5.3603,5.3645,5.3688,5.3693,5.3672,5.3634,5.3666,5.3661,5.3626,5.3713,5.3674,5.3684,5.3732,5.3819,5.3827,5.3834,5.3907,5.3925,5.394,0,0,0,0,0,0,5.3613,5.3613,5.3591,5.3664,5.3677,5.3677,5.3717,5.369,5.3713,5.3705,5.3676,5.3678,5.3742,5.3742,5.3699,5.3815,5.376,5.377,5.3812,5.3829,5.3842,5.384,5.3635,0,0,0,0,0,5.3637,5.3674,5.3671,5.3736,5.3743,5.373,5.3748,5.373,5.3742,5.3746,5.3745,5.3757,5.3787,5.3808,5.3835,5.3913,5.3914,5.3951,5.3964,5.3975,5.3984,5.4027,5.4044,5.3863,5.3863,5.3863,0,0,5.3687,5.3691,5.3716,5.375,5.3758,5.3796,5.3734,5.3777,5.3805,5.3752,5.3808,5.3808,5.3819,5.3888,5.3918,5.3891,5.4034,5.3985,5.3993,5.3997,5.4037,5.4054,5.4069,5.3868,5.3867,5.3866,0,0,5.3797,5.3804,5.3859,5.3869,5.3883,5.3873,5.3887,5.3892,5.389,5.3946,5.3908,5.394,5.3992,5.4003,5.4015,5.4131,5.41,5.414,5.421,5.4252,5.4266,5.4279,5.4322,5.4337,5.4149,5.4149,5.415,0,5.3857,5.3914,5.3891,5.3937,5.3954,5.3909,5.3965,5.3975,5.3997,5.4009,5.3977,5.4044,5.4048,5.412,5.4149,5.4159,5.4174,5.414,5.4266,5.4279,5.429,5.4331,5.4347,5.4154,5.4154,5.4153,5.4153,0,5.3988,5.4028,5.4071,5.4095,5.4116,5.4167,5.4151,5.4175,5.4155,5.4149,5.4207,5.4211,5.4239,5.4254,5.4235,5.4324,5.4307,5.4272,5.4216,5.4313,5.4351,5.4366,5.4161,5.416,5.4158,5.4157,0,0,5.4142,5.4154,5.4171,5.4182,5.4194,5.4225,5.4273,5.4303,5.4324,5.434,5.4381,5.4427,5.4396,5.4409,5.4391,5.4428,5.4522,5.4388,5.4388,5.4414,5.4622,5.4649,5.4668,5.4501,5.4504,5.4506,5.4621,0,5.4253,5.4339,5.432,5.4404,5.4442,5.4401,5.4443,5.4455,5.4451,5.4481,5.4476,5.451,5.4464,5.4473,5.4508,5.4503,5.4563,5.4494,5.4539,5.454,5.4539,5.4687,5.4716,5.4824,5.4636,5.4638,5.464,0,5.4393,5.4417,5.4506,5.4514,5.4529,5.4568,5.4594,5.4624,5.4637,5.4631,5.4648,5.4622,5.467,5.4614,5.468,5.4634,5.4651,5.4651,5.4655,5.4659,5.4597,5.4697,5.4858,5.4875,5.4662,5.4661,5.4659,0,5.4499,5.4553,5.4614,5.4625,5.4635,5.4664,5.4669,5.4679,5.4699,5.4721,5.4733,5.476,5.4775,5.4797,5.4779,5.4739,5.4849,5.479,5.4846,5.4846,5.4871,5.487,5.504,5.488,5.488,5.488,5.4879,0,5.4625,5.4682,5.4663,5.47,5.4762,5.4739,5.4801,5.4801,5.4811,5.4847,5.4812,5.4847,5.4821,5.4854,5.484,5.4898,5.4904,5.4901,5.4897,5.4905,5.4906,5.4917,5.4909,5.4884,5.4883,5.4882,5.4881,0,5.4755,5.4744,5.4808,5.4814,5.4816,5.4862,5.4866,5.4901,5.4894,5.4941,5.4951,5.494,5.4977,5.4961,5.4999,5.499,5.5065,5.505,5.5061,5.5058,5.5115,5.511,5.5298,5.5322,5.5146,5.5148,5.5149,0,5.4837,5.4879,5.4891,5.4914,5.4922,5.4959,5.4979,5.4958,5.4981,5.5,5.5032,5.5066,5.5092,5.5153,5.5148,5.5177,5.5163,5.5227,5.5167,5.5175,5.5166,5.5165,5.517,5.524,5.5242,5.5243,5.5245,0,5.4984,5.4977,5.5008,5.5039,5.5065,5.5087,5.5106,5.5126,5.5106,5.5133,5.5171,5.5192,5.5232,5.5266,5.5292,5.5297,5.5268,5.5263,5.5278,5.5288,5.5293,5.5293,5.5096,5.5259,5.5258,5.5257,5.5256,5.5255,5.5093,5.513,5.5145,5.5181,5.5194,5.5213,5.5247,5.5245,5.5277,5.5309,5.5294,5.5339,5.5351,5.5384,5.5392,5.5426,5.5401,5.5422,5.5428,5.5433,5.5442,5.5287,5.5431,5.543,5.543,5.5429,5.5429,0,5.524,5.5248,5.5282,5.5311,5.534,5.5311,5.5331,5.5357,5.5398,5.5412,5.5439,5.5484,5.5517,5.5516,5.5547,5.5574,5.5562,5.5583,5.5582,5.5584,5.5462,5.5447,5.5593,5.5593,5.5593,5.5593,5.5593,5.5593,5.532,5.5382,5.5377,5.5445,5.5451,5.5496,5.5511,5.5528,5.554,5.5592,5.562,5.562,5.5628,5.5659,5.5689,5.5687,5.5701,5.5728,5.5722,5.5608,5.5592,5.5576,5.5563,5.5731,5.5731,5.5841,5.5842,5.5843]}]]